Location: Peebles
(55.6412°N, 3.1714°W)
Time: 07:26:12
(UTC+01:00)

OBJECT A - Pass Details

Date: 09 July 2022
Orbit: 611 x 632 km, 97.9° (Epoch: 10 August)

Event Time Altitude Azimuth Distance (km) Brightness Sun altitude
Exits shadow 00:18:19 - 207° (SSW) 2,179 ? -10.9°
Reaches altitude 10° 00:18:53 10° 211° (SSW) 1,987 ? -11.0°
Maximum altitude 00:22:28 25° 268° (W) 1,261 ? -11.1°
Drops below altitude 10° 00:26:04 10° 324° (NW) 1,990 ? -11.2°
Sets 00:28:35 0° 338° (NNW) 2,898 ? -11.3°
